| time (UTC) | temp C | wind direction | speed KPH | gust KPH | rain 1hr cm | rain 24hr cm | rain mn cm | humidity % | barometer mb |
| 20260510020754 | 26 | 45 | 1.6 | 6.4 | 0.00 | 0.00 | 0.00 | 63 | 1008.3 |
| 20260510020253 | 25 | 328 | 1.6 | 4.8 | 0.00 | 0.00 | 0.00 | 61 | 1008.1 |
| 20260510015750 | 25 | 321 | 1.6 | 3.2 | 0.00 | 0.00 | 0.00 | 61 | 1007.8 |
| 20260510015246 | 25 | 168 | 0.0 | 0.0 | 0.00 | 0.00 | 0.00 | 61 | 1007.6 |
| 20260510014741 | 26 | 230 | 0.0 | 1.6 | 0.00 | 0.00 | 0.00 | 60 | 1007.5 |
| 20260510014239 | 26 | 230 | 0.0 | 1.6 | 0.00 | 0.00 | 0.00 | 58 | 1007.3 |
| 20260510013735 | 26 | 5 | 0.0 | 3.2 | 0.00 | 0.00 | 0.00 | 56 | 1007.1 |
| 20260510013230 | 26 | 359 | 3.2 | 4.8 | 0.00 | 0.00 | 0.00 | 57 | 1007.4 |
| 20260510012725 | 26 | 338 | 3.2 | 3.2 | 0.00 | 0.00 | 0.00 | 57 | 1007.4 |
| 20260510012220 | 26 | 5 | 0.0 | 3.2 | 0.00 | 0.00 | 0.00 | 57 | 1007.7 |
| 20260510011715 | 26 | 306 | 0.0 | 3.2 | 0.00 | 0.00 | 0.00 | 56 | 1007.5 |
| 20260510011210 | 26 | 287 | 0.0 | 4.8 | 0.00 | 0.00 | 0.00 | 55 | 1007.2 |
| 20260510010707 | 26 | 206 | 3.2 | 3.2 | 0.00 | 0.00 | 0.00 | 55 | 1007.2 |
| 20260510010204 | 26 | 15 | 0.0 | 4.8 | 0.00 | 0.00 | 0.00 | 56 | 1007.1 |
| 20260510005701 | 26 | 112 | 0.0 | 8.0 | 0.00 | 0.00 | 0.00 | 57 | 1007.1 |
| 20260510005157 | 26 | 212 | 3.2 | 6.4 | 0.00 | 0.00 | 0.00 | 59 | 1007.2 |
| 20260510004655 | 27 | 207 | 3.2 | 9.7 | 0.00 | 0.00 | 0.00 | 61 | 1006.9 |
| 20260510004153 | 27 | 149 | 6.4 | 9.7 | 0.00 | 0.00 | 0.00 | 60 | 1006.9 |
| 20260510003650 | 27 | 190 | 4.8 | 12.9 | 0.00 | 0.00 | 0.00 | 58 | 1006.7 |
| 20260510003146 | 27 | 195 | 3.2 | 9.7 | 0.00 | 0.00 | 0.00 | 55 | 1006.9 |
| 20260510002646 | 27 | 160 | 9.7 | 12.9 | 0.00 | 0.00 | 0.00 | 53 | 1007.1 |
| 20260510002143 | 26 | 178 | 6.4 | 22.5 | 0.00 | 0.00 | 0.00 | 52 | 1007.1 |
| 20260510001640 | 26 | 164 | 1.6 | 12.9 | 0.00 | 0.00 | 0.00 | 55 | 1006.9 |
| 20260510001138 | 26 | 130 | 4.8 | 20.9 | 0.00 | 0.00 | 0.00 | 57 | 1007.2 |
| 20260510000638 | 27 | 170 | 9.7 | 24.1 | 0.00 | 0.00 | 0.00 | 61 | 1006.9 |
| 20260510000136 | 29 | 161 | 6.4 | 17.7 | 0.00 | 0.00 | 0.00 | 62 | 1007.1 |
| 20260509235632 | 30 | 142 | 3.2 | 6.4 | 0.00 | 0.00 | 0.00 | 62 | 1006.7 |
| 20260509235129 | 30 | 126 | 4.8 | 6.4 | 0.00 | 0.00 | 0.00 | 64 | 1006.5 |
| 20260509234625 | 30 | 152 | 6.4 | 14.5 | 0.00 | 0.00 | 0.00 | 64 | 1006.5 |
| 20260509234123 | 30 | 163 | 4.8 | 9.7 | 0.00 | 0.00 | 0.00 | 65 | 1006.6 |
| 20260509233620 | 30 | 145 | 11.3 | 11.3 | 0.00 | 0.00 | 0.00 | 63 | 1006.4 |
| 20260509233118 | 31 | 132 | 8.0 | 11.3 | 0.00 | 0.00 | 0.00 | 63 | 1006.5 |
| 20260509232614 | 31 | 155 | 4.8 | 4.8 | 0.00 | 0.00 | 0.00 | 62 | 1006.4 |
| 20260509232111 | 31 | 146 | 3.2 | 6.4 | 0.00 | 0.00 | 0.00 | 61 | 1006.4 |
| 20260509231607 | 31 | 116 | 6.4 | 6.4 | 0.00 | 0.00 | 0.00 | 59 | 1006.4 |
| 20260509231105 | 31 | 135 | 3.2 | 4.8 | 0.00 | 0.00 | 0.00 | 60 | 1006.2 |
| 20260509230601 | 31 | 139 | 3.2 | 8.0 | 0.00 | 0.00 | 0.00 | 57 | 1006.6 |
| 20260509230059 | 32 | 152 | 6.4 | 6.4 | 0.00 | 0.00 | 0.00 | 58 | 1006.1 |
| 20260509225554 | 32 | 72 | 0.0 | 4.8 | 0.00 | 0.00 | 0.00 | 57 | 1006.2 |
| 20260509225050 | 32 | 31 | 3.2 | 8.0 | 0.00 | 0.00 | 0.00 | 58 | 1006.1 |
| 20260509224545 | 32 | 142 | 3.2 | 4.8 | 0.00 | 0.00 | 0.00 | 57 | 1006.1 |
| 20260509224043 | 32 | 61 | 4.8 | 8.0 | 0.00 | 0.00 | 0.00 | 57 | 1006.0 |
| 20260509223539 | 33 | 45 | 3.2 | 6.4 | 0.00 | 0.00 | 0.00 | 56 | 1006.2 |
| 20260509223037 | 35 | 122 | 4.8 | 4.8 | 0.00 | 0.00 | 0.00 | 52 | 1006.1 |
| 20260509222533 | 34 | 228 | 0.0 | 6.4 | 0.00 | 0.00 | 0.00 | 52 | 1006.3 |
| 20260509222029 | 33 | 7 | 1.6 | 9.7 | 0.00 | 0.00 | 0.00 | 54 | 1006.2 |
| 20260509221525 | 33 | 30 | 3.2 | 6.4 | 0.00 | 0.00 | 0.00 | 54 | 1006.0 |
| 20260509221021 | 33 | 30 | 6.4 | 8.0 | 0.00 | 0.00 | 0.00 | 54 | 1005.9 |
| 20260509220517 | 34 | 354 | 3.2 | 3.2 | 0.00 | 0.00 | 0.00 | 53 | 1006.0 |
| 20260509220014 | 33 | 358 | 6.4 | 8.0 | 0.00 | 0.00 | 0.00 | 55 | 1005.9 |
| 20260509215509 | 33 | 291 | 6.4 | 6.4 | 0.00 | 0.00 | 0.00 | 57 | 1006.0 |
| 20260509215007 | 33 | 30 | 3.2 | 9.7 | 0.00 | 0.00 | 0.00 | 56 | 1006.1 |
| 20260509214504 | 33 | 37 | 3.2 | 4.8 | 0.00 | 0.00 | 0.00 | 57 | 1006.0 |
| 20260509214000 | 33 | 178 | 3.2 | 6.4 | 0.00 | 0.00 | 0.00 | 58 | 1005.9 |
| 20260509213456 | 32 | 108 | 3.2 | 6.4 | 0.00 | 0.00 | 0.00 | 60 | 1006.1 |
| 20260509212954 | 33 | 66 | 1.6 | 4.8 | 0.00 | 0.00 | 0.00 | 58 | 1006.2 |
| 20260509212451 | 33 | 33 | 4.8 | 4.8 | 0.00 | 0.00 | 0.00 | 58 | 1006.1 |
| 20260509211947 | 33 | 22 | 1.6 | 6.4 | 0.00 | 0.00 | 0.00 | 60 | 1006.2 |
| 20260509211443 | 33 | 227 | 3.2 | 4.8 | 0.00 | 0.00 | 0.00 | 57 | 1006.3 |
| 20260509210940 | 32 | 50 | 4.8 | 6.4 | 0.00 | 0.00 | 0.00 | 61 | 1006.4 |
| 20260509210437 | 32 | 59 | 3.2 | 4.8 | 0.00 | 0.00 | 0.00 | 62 | 1006.3 |
| 20260509205932 | 32 | 83 | 0.0 | 8.0 | 0.00 | 0.00 | 0.00 | 60 | 1006.3 |
| 20260509205427 | 32 | 319 | 6.4 | 9.7 | 0.00 | 0.00 | 0.00 | 62 | 1006.6 |
| 20260509204923 | 32 | 54 | 3.2 | 6.4 | 0.00 | 0.00 | 0.00 | 63 | 1006.5 |
| 20260509204419 | 32 | 152 | 0.0 | 6.4 | 0.00 | 0.00 | 0.00 | 60 | 1006.7 |
| 20260509203916 | 32 | 31 | 4.8 | 6.4 | 0.00 | 0.00 | 0.00 | 60 | 1006.8 |
| 20260509203412 | 32 | 51 | 3.2 | 6.4 | 0.00 | 0.00 | 0.00 | 63 | 1006.8 |
| 20260509202910 | 32 | 31 | 3.2 | 6.4 | 0.00 | 0.00 | 0.00 | 63 | 1007.0 |
| 20260509202405 | 32 | 348 | 0.0 | 6.4 | 0.00 | 0.00 | 0.00 | 64 | 1006.9 |
| 20260509201900 | 33 | 25 | 0.0 | 3.2 | 0.00 | 0.00 | 0.00 | 65 | 1006.9 |
| 20260509201356 | 32 | 39 | 3.2 | 6.4 | 0.00 | 0.00 | 0.00 | 67 | 1007.0 |
| 20260509200853 | 32 | 48 | 4.8 | 4.8 | 0.00 | 0.00 | 0.00 | 63 | 1006.9 |
| 20260509200348 | 32 | 347 | 1.6 | 8.0 | 0.00 | 0.00 | 0.00 | 65 | 1007.0 |
| 20260509195845 | 31 | 72 | 3.2 | 4.8 | 0.00 | 0.00 | 0.00 | 68 | 1007.3 |
| 20260509195345 | 31 | 322 | 0.0 | 4.8 | 0.00 | 0.00 | 0.00 | 66 | 1007.3 |
| 20260509194845 | 31 | 7 | 3.2 | 6.4 | 0.00 | 0.00 | 0.00 | 67 | 1007.4 |
| 20260509194341 | 32 | 89 | 3.2 | 4.8 | 0.00 | 0.00 | 0.00 | 65 | 1007.2 |
| 20260509193838 | 31 | 47 | 3.2 | 4.8 | 0.00 | 0.00 | 0.00 | 69 | 1007.4 |
| 20260509193338 | 31 | 345 | 3.2 | 6.4 | 0.00 | 0.00 | 0.00 | 68 | 1007.4 |
| 20260509192834 | 31 | 55 | 3.2 | 9.7 | 0.00 | 0.00 | 0.00 | 69 | 1007.4 |
| 20260509192330 | 31 | 320 | 3.2 | 11.3 | 0.00 | 0.00 | 0.00 | 68 | 1007.3 |
| 20260509191825 | 31 | 295 | 3.2 | 4.8 | 0.00 | 0.00 | 0.00 | 67 | 1007.4 |
| 20260509191321 | 31 | 8 | 6.4 | 6.4 | 0.00 | 0.00 | 0.00 | 65 | 1007.7 |
| 20260509190817 | 30 | 12 | 1.6 | 6.4 | 0.00 | 0.00 | 0.00 | 67 | 1007.6 |
| 20260509190315 | 30 | 15 | 3.2 | 6.4 | 0.00 | 0.00 | 0.00 | 67 | 1007.8 |
| 20260509185812 | 31 | 346 | 0.0 | 3.2 | 0.00 | 0.00 | 0.00 | 66 | 1007.6 |
| 20260509185308 | 31 | 128 | 0.0 | 4.8 | 0.00 | 0.00 | 0.00 | 66 | 1007.5 |
| 20260509184806 | 31 | 158 | 3.2 | 6.4 | 0.00 | 0.00 | 0.00 | 65 | 1007.7 |
| 20260509184303 | 30 | 186 | 0.0 | 4.8 | 0.00 | 0.00 | 0.00 | 69 | 1007.8 |
| 20260509183759 | 31 | 146 | 4.8 | 6.4 | 0.00 | 0.00 | 0.00 | 65 | 1007.9 |
| 20260509183255 | 31 | 258 | 3.2 | 4.8 | 0.00 | 0.00 | 0.00 | 68 | 1008.1 |
| 20260509182750 | 31 | 324 | 0.0 | 4.8 | 0.00 | 0.00 | 0.00 | 66 | 1008.0 |
| 20260509182248 | 31 | 116 | 3.2 | 3.2 | 0.00 | 0.00 | 0.00 | 66 | 1008.1 |
| 20260509181745 | 31 | 265 | 3.2 | 4.8 | 0.00 | 0.00 | 0.00 | 67 | 1008.1 |
| 20260509181243 | 31 | 89 | 0.0 | 4.8 | 0.00 | 0.00 | 0.00 | 67 | 1008.2 |
| 20260509180740 | 31 | 293 | 6.4 | 6.4 | 0.00 | 0.00 | 0.00 | 67 | 1008.5 |
| 20260509180236 | 30 | 89 | 0.0 | 8.0 | 0.00 | 0.00 | 0.00 | 71 | 1008.6 |
| 20260509175732 | 29 | 157 | 3.2 | 11.3 | 0.00 | 0.00 | 0.00 | 72 | 1008.3 |
| 20260509175229 | 29 | 138 | 3.2 | 8.0 | 0.00 | 0.00 | 0.00 | 73 | 1008.5 |
| 20260509174725 | 29 | 176 | 6.4 | 9.7 | 0.00 | 0.00 | 0.00 | 74 | 1008.7 |
| 20260509174220 | 29 | 125 | 3.2 | 8.0 | 0.00 | 0.00 | 0.00 | 74 | 1008.6 |
| 20260509173717 | 29 | 164 | 8.0 | 8.0 | 0.00 | 0.00 | 0.00 | 74 | 1008.9 |
| 20260509173212 | 29 | 144 | 3.2 | 9.7 | 0.00 | 0.00 | 0.00 | 75 | 1008.8 |
| 20260509172708 | 29 | 182 | 8.0 | 11.3 | 0.00 | 0.00 | 0.00 | 76 | 1008.5 |
| 20260509172205 | 30 | 139 | 3.2 | 11.3 | 0.00 | 0.00 | 0.00 | 75 | 1008.7 |
| 20260509171701 | 30 | 158 | 4.8 | 8.0 | 0.00 | 0.00 | 0.00 | 75 | 1008.7 |
| 20260509171157 | 29 | 136 | 6.4 | 9.7 | 0.00 | 0.00 | 0.00 | 77 | 1008.6 |
| 20260509170654 | 28 | 136 | 4.8 | 12.9 | 0.00 | 0.00 | 0.00 | 78 | 1008.7 |
| 20260509170150 | 28 | 179 | 6.4 | 9.7 | 0.00 | 0.00 | 0.00 | 77 | 1008.8 |
| 20260509165648 | 28 | 132 | 4.8 | 9.7 | 0.00 | 0.00 | 0.00 | 77 | 1008.7 |
| 20260509165144 | 28 | 137 | 4.8 | 4.8 | 0.00 | 0.00 | 0.00 | 78 | 1008.5 |
| 20260509164640 | 28 | 170 | 3.2 | 6.4 | 0.00 | 0.00 | 0.00 | 80 | 1008.4 |
| 20260509164136 | 27 | 177 | 0.0 | 1.6 | 0.00 | 0.00 | 0.00 | 82 | 1008.8 |
| 20260509163634 | 26 | 342 | 3.2 | 3.2 | 0.00 | 0.00 | 0.00 | 85 | 1008.7 |
| 20260509163129 | 26 | 211 | 0.0 | 3.2 | 0.00 | 0.00 | 0.00 | 85 | 1008.8 |
| 20260509162627 | 26 | 262 | 1.6 | 3.2 | 0.00 | 0.00 | 0.00 | 85 | 1009.0 |
| 20260509162123 | 26 | 261 | 1.6 | 3.2 | 0.00 | 0.00 | 0.00 | 85 | 1009.2 |
| 20260509161619 | 26 | 302 | 0.0 | 3.2 | 0.00 | 0.00 | 0.00 | 85 | 1009.2 |
| 20260509161114 | 26 | 292 | 3.2 | 3.2 | 0.00 | 0.00 | 0.00 | 86 | 1009.3 |
| 20260509160610 | 26 | 56 | 3.2 | 3.2 | 0.00 | 0.00 | 0.00 | 85 | 1009.1 |
| 20260509160105 | 26 | 28 | 3.2 | 3.2 | 0.00 | 0.00 | 0.00 | 86 | 1009.2 |
| 20260509155602 | 26 | 336 | 0.0 | 3.2 | 0.00 | 0.00 | 0.00 | 87 | 1009.2 |
| 20260509155058 | 26 | 5 | 1.6 | 4.8 | 0.00 | 0.00 | 0.00 | 88 | 1009.2 |
| 20260509154554 | 26 | 339 | 3.2 | 3.2 | 0.00 | 0.00 | 0.00 | 88 | 1009.1 |
| 20260509154052 | 25 | 55 | 1.6 | 4.8 | 0.00 | 0.00 | 0.00 | 88 | 1009.1 |
| 20260509153549 | 26 | 58 | 3.2 | 6.4 | 0.00 | 0.00 | 0.00 | 88 | 1009.1 |
| 20260509153046 | 26 | 347 | 3.2 | 3.2 | 0.00 | 0.00 | 0.00 | 87 | 1009.2 |
| 20260509152542 | 26 | 303 | 3.2 | 3.2 | 0.00 | 0.00 | 0.00 | 87 | 1009.1 |
| 20260509152040 | 26 | 286 | 0.0 | 3.2 | 0.00 | 0.00 | 0.00 | 88 | 1009.2 |
| 20260509151535 | 25 | 202 | 0.0 | 3.2 | 0.00 | 0.00 | 0.00 | 88 | 1009.0 |
| 20260509151033 | 26 | 146 | 0.0 | 1.6 | 0.00 | 0.00 | 0.00 | 88 | 1009.0 |
| 20260509150530 | 25 | 325 | 1.6 | 3.2 | 0.00 | 0.00 | 0.00 | 88 | 1009.1 |
| 20260509150029 | 25 | 260 | 0.0 | 3.2 | 0.00 | 0.00 | 0.00 | 89 | 1009.0 |
| 20260509145524 | 25 | 29 | 0.0 | 4.8 | 0.00 | 0.00 | 0.00 | 90 | 1009.0 |
| 20260509145019 | 25 | 35 | 3.2 | 6.4 | 0.00 | 0.00 | 0.00 | 89 | 1008.7 |
| 20260509144517 | 25 | 242 | 1.6 | 4.8 | 0.00 | 0.00 | 0.00 | 90 | 1008.5 |
| 20260509144014 | 25 | 351 | 1.6 | 4.8 | 0.00 | 0.00 | 0.00 | 90 | 1008.3 |
| 20260509143511 | 25 | 0 | 0.0 | 1.6 | 0.00 | 0.00 | 0.00 | 91 | 1008.4 |
| 20260509143009 | 25 | 286 | 0.0 | 1.6 | 0.00 | 0.00 | 0.00 | 91 | 1008.5 |
| 20260509142504 | 25 | 2 | 1.6 | 3.2 | 0.00 | 0.00 | 0.00 | 91 | 1008.5 |
| 20260509141959 | 25 | 304 | 1.6 | 3.2 | 0.00 | 0.00 | 0.00 | 92 | 1008.5 |
| 20260509141456 | 25 | 255 | 0.0 | 1.6 | 0.00 | 0.00 | 0.00 | 93 | 1008.5 |
| 20260509140948 | 25 | 269 | 0.0 | 3.2 | 0.00 | 0.00 | 0.00 | 93 | 1008.2 |
| 20260509140443 | 25 | 255 | 1.6 | 1.6 | 0.00 | 0.00 | 0.00 | 94 | 1008.1 |
| 20260509135942 | 24 | 309 | 0.0 | 1.6 | 0.00 | 0.00 | 0.00 | 94 | 1008.1 |
| 20260509135439 | 24 | 62 | 0.0 | 1.6 | 0.00 | 0.00 | 0.00 | 95 | 1008.1 |
| 20260509134937 | 24 | 244 | 0.0 | 3.2 | 0.00 | 0.00 | 0.00 | 95 | 1008.4 |
| 20260509134434 | 24 | 225 | 0.0 | 3.2 | 0.00 | 0.00 | 0.00 | 95 | 1008.5 |
| 20260509133931 | 24 | 204 | 3.2 | 4.8 | 0.00 | 0.00 | 0.00 | 95 | 1008.4 |
| 20260509133427 | 24 | 217 | 1.6 | 3.2 | 0.00 | 0.00 | 0.00 | 95 | 1008.4 |
| 20260509132926 | 24 | 242 | 0.0 | 1.6 | 0.00 | 0.00 | 0.00 | 96 | 1008.7 |
| 20260509132424 | 24 | 194 | 3.2 | 4.8 | 0.00 | 0.00 | 0.00 | 96 | 1008.8 |
| 20260509131921 | 24 | 230 | 0.0 | 1.6 | 0.00 | 0.00 | 0.00 | 97 | 1009.1 |
| 20260509131418 | 24 | 248 | 1.6 | 1.6 | 0.00 | 0.00 | 0.00 | 98 | 1009.3 |
| 20260509130915 | 24 | 339 | 0.0 | 3.2 | 0.00 | 0.00 | 0.00 | 98 | 1009.0 |
| 20260509130409 | 23 | 212 | 1.6 | 4.8 | 0.00 | 0.00 | 0.00 | 99 | 1009.1 |
| 20260509125907 | 23 | 184 | 1.6 | 4.8 | 0.00 | 0.00 | 0.00 | 99 | 1009.2 |
| 20260509125404 | 23 | 139 | 0.0 | 4.8 | 0.00 | 0.00 | 0.00 | 99 | 1008.9 |
| 20260509124900 | 23 | 174 | 1.6 | 3.2 | 0.00 | 0.00 | 0.00 | 99 | 1008.9 |
| 20260509124357 | 23 | 78 | 1.6 | 3.2 | 0.00 | 0.00 | 0.00 | 99 | 1009.0 |
| 20260509123854 | 23 | 225 | 3.2 | 4.8 | 0.00 | 0.00 | 0.00 | 99 | 1009.0 |
| 20260509123351 | 23 | 219 | 0.0 | 3.2 | 0.00 | 0.00 | 0.00 | 99 | 1008.9 |
| 20260509122847 | 23 | 176 | 3.2 | 6.4 | 0.00 | 0.00 | 0.00 | 99 | 1008.9 |
| 20260509122344 | 23 | 223 | 1.6 | 3.2 | 0.00 | 0.00 | 0.00 | 99 | 1009.1 |
| 20260509121841 | 23 | 264 | 0.0 | 1.6 | 0.00 | 0.00 | 0.00 | 99 | 1008.6 |
| 20260509121338 | 23 | 307 | 1.6 | 3.2 | 0.00 | 0.00 | 0.00 | 99 | 1008.7 |
| 20260509120836 | 23 | 234 | 0.0 | 1.6 | 0.00 | 0.00 | 0.00 | 99 | 1008.7 |
| 20260509120334 | 22 | 329 | 0.0 | 1.6 | 0.00 | 0.00 | 0.00 | 99 | 1008.6 |
| 20260509115831 | 22 | 222 | 1.6 | 3.2 | 0.00 | 0.00 | 0.00 | 99 | 1008.5 |
| 20260509115328 | 22 | 301 | 0.0 | 1.6 | 0.00 | 0.00 | 0.00 | 99 | 1008.1 |
| 20260509114826 | 22 | 257 | 0.0 | 3.2 | 0.00 | 0.00 | 0.00 | 99 | 1008.5 |
| 20260509114325 | 23 | 335 | 1.6 | 3.2 | 0.00 | 0.00 | 0.00 | 99 | 1008.7 |
| 20260509113824 | 23 | 347 | 0.0 | 3.2 | 0.00 | 0.00 | 0.00 | 99 | 1008.6 |
| 20260509113320 | 23 | 238 | 1.6 | 3.2 | 0.00 | 0.00 | 0.00 | 99 | 1008.6 |
| 20260509112817 | 23 | 323 | 3.2 | 3.2 | 0.00 | 0.00 | 0.00 | 99 | 1008.9 |
| 20260509112314 | 23 | 322 | 1.6 | 3.2 | 0.00 | 0.00 | 0.00 | 99 | 1008.9 |
| 20260509111811 | 23 | 359 | 3.2 | 4.8 | 0.00 | 0.00 | 0.00 | 99 | 1008.9 |
| 20260509111308 | 23 | 325 | 0.0 | 3.2 | 0.00 | 0.00 | 0.00 | 99 | 1008.6 |
| 20260509110806 | 23 | 329 | 3.2 | 3.2 | 0.00 | 0.00 | 0.00 | 99 | 1008.6 |
| 20260509110301 | 23 | 345 | 3.2 | 3.2 | 0.00 | 0.00 | 0.00 | 99 | 1008.8 |
| 20260509105800 | 23 | 2 | 3.2 | 6.4 | 0.00 | 0.00 | 0.00 | 99 | 1008.7 |
| 20260509105257 | 23 | 6 | 3.2 | 4.8 | 0.00 | 0.00 | 0.00 | 99 | 1008.5 |
| 20260509104754 | 23 | 354 | 3.2 | 3.2 | 0.00 | 0.00 | 0.00 | 99 | 1008.5 |
| 20260509104251 | 23 | 347 | 1.6 | 3.2 | 0.00 | 0.00 | 0.00 | 99 | 1008.2 |
| 20260509103749 | 23 | 320 | 3.2 | 4.8 | 0.00 | 0.00 | 0.00 | 99 | 1008.2 |
| 20260509103246 | 23 | 335 | 3.2 | 3.2 | 0.00 | 0.00 | 0.00 | 99 | 1008.1 |
| 20260509102744 | 23 | 282 | 0.0 | 3.2 | 0.00 | 0.00 | 0.00 | 99 | 1008.4 |
| 20260509102241 | 23 | 279 | 0.0 | 1.6 | 0.00 | 0.00 | 0.00 | 99 | 1008.3 |
| 20260509101738 | 23 | 191 | 0.0 | 3.2 | 0.00 | 0.00 | 0.00 | 99 | 1008.2 |
| 20260509101234 | 23 | 208 | 0.0 | 1.6 | 0.00 | 0.00 | 0.00 | 99 | 1008.0 |
| 20260509100731 | 23 | 175 | 3.2 | 4.8 | 0.00 | 0.00 | 0.00 | 99 | 1007.7 |
| 20260509100228 | 23 | 295 | 0.0 | 1.6 | 0.00 | 0.00 | 0.00 | 99 | 1007.5 |
| 20260509095725 | 23 | 245 | 1.6 | 3.2 | 0.00 | 0.00 | 0.00 | 99 | 1007.6 |
| 20260509095222 | 23 | 209 | 0.0 | 3.2 | 0.00 | 0.00 | 0.00 | 99 | 1007.6 |
| 20260509094719 | 23 | 295 | 0.0 | 3.2 | 0.00 | 0.00 | 0.00 | 98 | 1007.6 |
| 20260509094216 | 23 | 202 | 0.0 | 1.6 | 0.00 | 0.00 | 0.00 | 98 | 1007.7 |
| 20260509093714 | 23 | 339 | 0.0 | 3.2 | 0.00 | 0.00 | 0.00 | 98 | 1007.5 |
| 20260509093211 | 23 | 330 | 0.0 | 3.2 | 0.00 | 0.00 | 0.00 | 98 | 1007.7 |
| 20260509092709 | 23 | 23 | 1.6 | 3.2 | 0.00 | 0.00 | 0.00 | 98 | 1008.0 |
| 20260509092207 | 23 | 339 | 1.6 | 1.6 | 0.00 | 0.00 | 0.00 | 98 | 1008.2 |
| 20260509091705 | 23 | 321 | 0.0 | 1.6 | 0.00 | 0.00 | 0.00 | 98 | 1008.1 |
| 20260509091201 | 23 | 269 | 0.0 | 0.0 | 0.00 | 0.00 | 0.00 | 98 | 1008.2 |
| 20260509090659 | 23 | 326 | 0.0 | 0.0 | 0.00 | 0.00 | 0.00 | 98 | 1008.3 |
| 20260509090155 | 23 | 291 | 0.0 | 1.6 | 0.00 | 0.00 | 0.00 | 98 | 1008.2 |
| 20260509085653 | 23 | 280 | 0.0 | 0.0 | 0.00 | 0.00 | 0.00 | 98 | 1008.2 |
| 20260509085149 | 23 | 256 | 0.0 | 0.0 | 0.00 | 0.00 | 0.00 | 98 | 1008.3 |
| 20260509084647 | 23 | 310 | 0.0 | 3.2 | 0.00 | 0.00 | 0.00 | 98 | 1008.3 |
| 20260509084143 | 23 | 297 | 0.0 | 0.0 | 0.00 | 0.00 | 0.00 | 98 | 1008.2 |
| 20260509083641 | 23 | 322 | 0.0 | 3.2 | 0.00 | 0.00 | 0.00 | 98 | 1008.3 |
| 20260509083137 | 23 | 324 | 0.0 | 1.6 | 0.00 | 0.00 | 0.00 | 98 | 1008.2 |
| 20260509082635 | 23 | 304 | 0.0 | 1.6 | 0.00 | 0.00 | 0.00 | 98 | 1008.1 |
| 20260509082131 | 23 | 293 | 0.0 | 1.6 | 0.00 | 0.00 | 0.00 | 98 | 1008.2 |
| 20260509081628 | 23 | 89 | 0.0 | 3.2 | 0.00 | 0.00 | 0.00 | 98 | 1008.2 |
| 20260509081126 | 23 | 224 | 0.0 | 1.6 | 0.00 | 0.00 | 0.00 | 98 | 1008.2 |
| 20260509080623 | 23 | 149 | 0.0 | 3.2 | 0.00 | 0.00 | 0.00 | 98 | 1008.0 |
| 20260509080121 | 23 | 242 | 0.0 | 4.8 | 0.00 | 0.00 | 0.00 | 98 | 1007.9 |
| 20260509075619 | 23 | 222 | 0.0 | 3.2 | 0.00 | 0.00 | 0.00 | 98 | 1008.2 |
| 20260509075116 | 23 | 144 | 0.0 | 3.2 | 0.00 | 0.00 | 0.00 | 98 | 1008.1 |
| 20260509074613 | 23 | 319 | 0.0 | 3.2 | 0.00 | 0.00 | 0.00 | 98 | 1008.0 |
| 20260509074110 | 23 | 149 | 1.6 | 4.8 | 0.00 | 0.00 | 0.00 | 98 | 1008.2 |
| 20260509073606 | 23 | 180 | 3.2 | 3.2 | 0.00 | 0.00 | 0.00 | 98 | 1008.1 |
| 20260509073103 | 23 | 243 | 1.6 | 3.2 | 0.00 | 0.00 | 0.00 | 98 | 1008.2 |
| 20260509072559 | 23 | 333 | 0.0 | 3.2 | 0.00 | 0.00 | 0.00 | 98 | 1008.2 |
| 20260509072056 | 23 | 286 | 1.6 | 3.2 | 0.00 | 0.00 | 0.00 | 98 | 1008.1 |
| 20260509071553 | 23 | 163 | 3.2 | 6.4 | 0.00 | 0.00 | 0.00 | 97 | 1007.9 |
| 20260509071050 | 23 | 185 | 3.2 | 4.8 | 0.00 | 0.00 | 0.00 | 97 | 1008.2 |
| 20260509070547 | 23 | 187 | 3.2 | 3.2 | 0.00 | 0.00 | 0.00 | 97 | 1008.0 |
| 20260509070038 | 23 | 205 | 0.0 | 3.2 | 0.00 | 0.00 | 0.00 | 97 | 1008.2 |
| 20260509065533 | 23 | 230 | 0.0 | 4.8 | 0.00 | 0.00 | 0.00 | 97 | 1008.3 |
| 20260509065029 | 23 | 173 | 1.6 | 4.8 | 0.00 | 0.00 | 0.00 | 97 | 1008.2 |
| 20260509064527 | 23 | 189 | 1.6 | 3.2 | 0.00 | 0.00 | 0.00 | 97 | 1008.4 |
| 20260509064026 | 23 | 114 | 0.0 | 3.2 | 0.00 | 0.00 | 0.00 | 97 | 1008.3 |
| 20260509063525 | 23 | 201 | 1.6 | 3.2 | 0.00 | 0.00 | 0.00 | 97 | 1008.4 |
| 20260509063023 | 23 | 201 | 0.0 | 3.2 | 0.00 | 0.00 | 0.00 | 97 | 1008.3 |
| 20260509062520 | 23 | 235 | 1.6 | 3.2 | 0.00 | 0.00 | 0.00 | 97 | 1008.5 |
| 20260509062018 | 23 | 130 | 0.0 | 3.2 | 0.00 | 0.00 | 0.00 | 97 | 1008.7 |
| 20260509061514 | 23 | 194 | 1.6 | 3.2 | 0.00 | 0.00 | 0.00 | 97 | 1008.6 |
| 20260509061012 | 23 | 249 | 1.6 | 1.6 | 0.00 | 0.00 | 0.00 | 97 | 1008.7 |
| 20260509060509 | 23 | 256 | 0.0 | 3.2 | 0.00 | 0.00 | 0.00 | 97 | 1008.6 |
| 20260509060005 | 23 | 244 | 0.0 | 3.2 | 0.00 | 0.00 | 0.00 | 97 | 1008.8 |
| 20260509055500 | 23 | 242 | 0.0 | 3.2 | 0.00 | 0.00 | 0.00 | 97 | 1008.5 |
| 20260509054957 | 23 | 170 | 3.2 | 4.8 | 0.00 | 0.00 | 0.00 | 97 | 1008.7 |
| 20260509054454 | 23 | 6 | 0.0 | 6.4 | 0.00 | 0.00 | 0.00 | 96 | 1008.6 |
| 20260509053952 | 23 | 128 | 1.6 | 4.8 | 0.00 | 0.00 | 0.00 | 96 | 1008.7 |
| 20260509053449 | 23 | 207 | 3.2 | 6.4 | 0.00 | 0.00 | 0.00 | 96 | 1008.5 |
| 20260509052947 | 23 | 336 | 0.0 | 3.2 | 0.00 | 0.00 | 0.00 | 96 | 1008.7 |
| 20260509052444 | 23 | 187 | 3.2 | 8.0 | 0.00 | 0.00 | 0.00 | 96 | 1008.8 |
| 20260509051942 | 23 | 178 | 3.2 | 4.8 | 0.00 | 0.00 | 0.00 | 96 | 1008.9 |
| 20260509051439 | 23 | 189 | 4.8 | 4.8 | 0.00 | 0.00 | 0.00 | 96 | 1008.8 |
| 20260509050936 | 23 | 223 | 1.6 | 4.8 | 0.00 | 0.00 | 0.00 | 96 | 1008.8 |
| 20260509050433 | 23 | 332 | 3.2 | 3.2 | 0.00 | 0.00 | 0.00 | 97 | 1008.6 |
| 20260509045930 | 23 | 96 | 0.0 | 4.8 | 0.00 | 0.00 | 0.00 | 97 | 1008.6 |
| 20260509045427 | 23 | 289 | 1.6 | 4.8 | 0.00 | 0.00 | 0.00 | 97 | 1008.7 |
| 20260509044923 | 23 | 219 | 1.6 | 3.2 | 0.00 | 0.00 | 0.00 | 97 | 1008.8 |
| 20260509044421 | 23 | 244 | 0.0 | 3.2 | 0.00 | 0.00 | 0.00 | 97 | 1009.0 |
| 20260509043919 | 23 | 276 | 1.6 | 3.2 | 0.00 | 0.00 | 0.00 | 97 | 1009.0 |
| 20260509043414 | 23 | 315 | 0.0 | 3.2 | 0.00 | 0.00 | 0.00 | 97 | 1008.8 |
| 20260509042910 | 23 | 258 | 0.0 | 3.2 | 0.00 | 0.00 | 0.00 | 97 | 1008.8 |
| 20260509042407 | 23 | 315 | 3.2 | 3.2 | 0.00 | 0.00 | 0.00 | 97 | 1008.9 |
| 20260509041903 | 22 | 166 | 1.6 | 1.6 | 0.00 | 0.00 | 0.00 | 97 | 1009.0 |
| 20260509041400 | 22 | 229 | 0.0 | 3.2 | 0.00 | 0.00 | 0.00 | 97 | 1009.0 |
| 20260509040858 | 22 | 211 | 3.2 | 3.2 | 0.00 | 0.00 | 0.00 | 97 | 1008.7 |
| 20260509040356 | 22 | 326 | 3.2 | 4.8 | 0.00 | 0.00 | 0.00 | 97 | 1008.4 |
| 20260509035848 | 22 | 191 | 0.0 | 3.2 | 0.00 | 0.00 | 0.00 | 97 | 1008.6 |
| 20260509035344 | 22 | 352 | 0.0 | 3.2 | 0.00 | 0.00 | 0.00 | 97 | 1008.6 |
| 20260509034840 | 22 | 303 | 3.2 | 4.8 | 0.00 | 0.00 | 0.00 | 97 | 1008.4 |
| 20260509034338 | 22 | 292 | 1.6 | 4.8 | 0.00 | 0.00 | 0.00 | 97 | 1008.3 |
| 20260509033834 | 22 | 288 | 3.2 | 4.8 | 0.00 | 0.00 | 0.00 | 97 | 1008.4 |
| 20260509033332 | 22 | 161 | 0.0 | 4.8 | 0.00 | 0.00 | 0.00 | 97 | 1008.4 |
| 20260509032828 | 22 | 186 | 1.6 | 4.8 | 0.00 | 0.00 | 0.00 | 97 | 1008.4 |
| 20260509032326 | 22 | 231 | 0.0 | 4.8 | 0.00 | 0.00 | 0.00 | 97 | 1008.4 |
| 20260509031824 | 22 | 287 | 3.2 | 6.4 | 0.00 | 0.00 | 0.00 | 96 | 1008.2 |
| 20260509031320 | 22 | 160 | 3.2 | 6.4 | 0.00 | 0.00 | 0.00 | 96 | 1008.4 |
| 20260509030818 | 22 | 157 | 3.2 | 3.2 | 0.00 | 0.00 | 0.00 | 96 | 1008.5 |
| 20260509030316 | 22 | 174 | 1.6 | 6.4 | 0.00 | 0.00 | 0.00 | 96 | 1008.3 |
| 20260509025812 | 22 | 240 | 3.2 | 6.4 | 0.00 | 0.00 | 0.00 | 96 | 1008.3 |
| 20260509025308 | 22 | 268 | 1.6 | 6.4 | 0.00 | 0.00 | 0.00 | 96 | 1008.5 |
| 20260509024804 | 23 | 273 | 1.6 | 8.0 | 0.00 | 0.00 | 0.00 | 95 | 1008.1 |
| 20260509024300 | 23 | 301 | 3.2 | 6.4 | 0.00 | 0.00 | 0.00 | 95 | 1008.2 |
| 20260509023757 | 23 | 151 | 1.6 | 4.8 | 0.00 | 0.00 | 0.00 | 95 | 1008.2 |
| 20260509023254 | 23 | 225 | 3.2 | 4.8 | 0.00 | 0.00 | 0.00 | 95 | 1007.8 |
| 20260509022750 | 23 | 124 | 3.2 | 4.8 | 0.00 | 0.00 | 0.00 | 95 | 1008.2 |
| 20260509022248 | 23 | 260 | 4.8 | 4.8 | 0.00 | 0.00 | 0.00 | 95 | 1008.1 |
| 20260509021745 | 23 | 17 | 3.2 | 4.8 | 0.00 | 0.00 | 0.00 | 95 | 1007.9 |